Location: Grisols
(45.0093°N, 3.1167°E)
Time: 19:49:59
(UTC+00:00)

USA 238 DEB - Pass Details

Date: 21 October 2019
Orbit: 1026 x 1186 km, 63.4° (Epoch: 19 November)

Event Time Altitude Azimuth Distance (km) Brightness Sun altitude
Rises 18:57:16 0° 229° (SW) 3,774 7.2 -22.6°
Reaches altitude 10° 18:59:53 10° 233° (SW) 2,835 6.5 -23.1°
Maximum altitude 19:06:29 61° 313° (NW) 1,195 4.1 -24.2°
Enters shadow 19:12:34 14° 32° (NNE) 2,668 5.6 -25.3°
